User: anonymous   Login
Location: Unspecified
(0.0000°N, 0.0000°E)
Time: 17:24:41
(UTC+00:00)
Language:

KORONAS-FOTON - Orbit

View from above orbital plane
View from above orbital plane
View from above satellite
View from above satellite

Ground track
Ground track

The orbit data is extracted from the following two-line orbital elements,

1 33504U 09003A   17295.91513162 +.00000225 +00000-0 +10270-4 0  9992
2 33504 082.4398 106.0535 0020217 032.5506 327.6967 15.14968394480714
Epoch (UTC): 22 October 2017 21:57:47
Eccentricity: 0.0020217
inclination: 82.4398°
perigee height: 507 km
apogee height: 535 km
right ascension of ascending node: 106.0535°
argument of perigee: 32.5506°
revolutions per day: 15.14968394
mean anomaly at epoch: 327.6967°
orbit number at epoch: 48071

The dashed part of the orbit path shows where the satellite is in the earth's shadow,  

DLR